Regional Weather Roundup
Issued by NWS

Home | Current Version | Previous Version | Text Only | Print | Product List | Glossary Off
Versions: 1 2 3 4 5 6 7 8 9 10 11 12 13 14 15 16 17 18 19 20 21 22 23 24 25 26 27

000
ASUS45 KBOU 151107
RWRCO

WEATHER ROUNDUP FOR COLORADO
NATIONAL WEATHER SERVICE DENVER/BOULDER CO
500 AM MDT TUE AUG 15 2017

NOTE: "FAIR" INDICATES FEW OR NO CLOUDS BELOW 12000 FEET WITH NO
SIGNIFICANT WEATHER AND/OR OBSTRUCTIONS TO VISIBILITY.

COZ001>005-013-030-031-151200-
...NORTHWEST COLORADO...

CITY           SKY/WX    TMP DP  RH WIND       PRES   REMARKS
CRAIG          MOCLDY    55  48  77 NE7       29.99S
HAYDEN         FAIR      52  46  82 SE8       30.03S
MEEKER         FAIR      53  49  86 VRB3      30.00S
RABBIT EARS PA FAIR      46  37  71 S8        30.25F
STEAMBOAT SPGS FAIR      48  46  94 CALM      30.03F
WALDEN         FAIR      39  37  93 SE6       30.13F
$$

COZ006>008-011-151200-
...WEST CENTRAL VALLEYS...

CITY           SKY/WX    TMP DP  RH WIND       PRES   REMARKS
GRAND JUNCTION FAIR      65  48  54 CALM      29.88S
MONTROSE       FAIR      66  40  38 SE14      29.97S
EAGLE          FAIR      50  42  74 E6        30.07R
RIFLE          FAIR      56  49  77 W3        29.96R
DELTA          MOCLDY    67  41  38 NE6       29.94S
NUCLA          FAIR      64  36  34 E6        30.03S
$$

COZ017>023-064>068-151200-
...SOUTHWEST COLORADO...

CITY           SKY/WX    TMP DP  RH WIND       PRES   REMARKS
DURANGO        FAIR      52  42  69 CALM      30.09S
CORTEZ         FAIR      68  37  32 S16G22    30.02S
PAGOSA SPRINGS FAIR      50  41  72 CALM      30.16S
TELLURIDE      FAIR      55  37  49 SE3       30.25F
WOLF CREEK PAS FAIR      41  36  81 SW7       30.45F
$$

COZ009-010-012-014-032>034-037-058>063-151200-
...CENTRAL COLORADO...

CITY           SKY/WX    TMP DP  RH WIND       PRES   REMARKS
ASPEN          FAIR      52  39  61 S9        30.09F
BUENA VISTA    FAIR      46  41  85 NW7       30.15S
COPPER MTN     FAIR      50  28  43 SW7G22    30.38F
BERTHOUD PASS  FAIR      41  36  81 W9G16     30.40F
COTTONWOOD PAS FAIR      54  37  54 E7        30.25S
GUNNISON       FAIR      44  42  93 E5        30.16S
KREMMLING      FAIR      45  43  93 CALM      30.12R
LEADVILLE      FAIR      37  35  92 NE5       30.24F
MONARCH PASS   FAIR      45  32  61 W16       30.49F
SALIDA         FAIR      53  45  72 W3        30.19F
SUNLIGHT       FAIR      45  32  61 SW13G21   30.31S
WILKERSON PASS FAIR      46  34  61 SW10G17   30.36F
$$

COZ069>075-151200-
...SAN LUIS VALLEY/SANGRE DE CRISTO MOUNTAINS...

CITY           SKY/WX    TMP DP  RH WIND       PRES   REMARKS
ALAMOSA        FAIR      49  45  86 CALM      30.12S
DEL NORTE      FAIR      51  42  71 W7        30.15S
LA VETA PASS   NOT AVBL
SAGUACHE       FAIR      46  41  81 NW6       30.15F
$$

COZ035-036-038>040-151200-
...NORTHERN COLORADO FRONT RANGE...

CITY           SKY/WX    TMP DP  RH WIND       PRES   REMARKS
DENVER INTL AP FAIR      61  52  72 SW5       29.93S
DMNS CITY PARK   N/A     59  49  69 N7        29.93S
AURORA         PTCLDY    61  54  78 W5        29.96R
FRONT RANGE AP FAIR      59  55  88 NW5       29.95R
ERIE MUNI ARPT FAIR      56  53  89 CALM      29.96S
BOULDER MUN AP FAIR      63  52  67 CALM      29.93S
CENTENNIAL     FAIR      59  50  72 W5        29.96R
BROOMFIELD     FAIR      59  52  77 CALM      29.96S
FORT COLLINS   FAIR      62  53  72 E10       29.91F
LONGMONT       FAIR      59  52  78 W5        29.94S
$$

COZ041-046-047-076>085-087-088-151200-
...PIKES PEAK/PALMER DIVIDE AND SOUTHERN FOOTHILLS...

CITY           SKY/WX    TMP DP  RH WIND       PRES   REMARKS
COLO. SPRINGS  MOCLDY    62  56  80 NW5       30.00F
A. F. ACADEMY  FAIR      52  50  93 N7        30.01F
SCHRIEVER AFB  FAIR      60  55  85 NW12      29.99F
CHEYENNE MTN   FAIR      60  50  70 NW3       29.98F
ELLICOTT       FAIR     N/A N/A N/A W3        29.98S
FALCON         FAIR      54  53  95 W7        30.04F
FORT CARSON    FAIR      60  56  87 NW6       29.97S
LIMON          FAIR      54  53  97 CALM      29.93F
MONUMENT HILL  FAIR      54  52  94 S8        30.04F
CANON CITY     CLEAR     61  54  77 W9        29.95F
WALSENBURG     FAIR      57  50  77 CALM      29.99S
TRINIDAD       FAIR      65  50  58 W13       29.96S
$$

COZ042>045-048>051-090-091-151200-
...NORTHEAST COLORADO...

CITY           SKY/WX    TMP DP  RH WIND       PRES   REMARKS
GREELEY ARPT   FAIR      57  55  93 CALM      29.91F
AKRON          FAIR      63  55  75 CALM      29.92R
BURLINGTON     FAIR      61  58  90 SE6       29.86S
WRAY           NOT AVBL
YUMA           PTSUNNY   61  46  59 NE6       29.87R
STERLING       FAIR      63  59  88 N6        29.86R
HOLYOKE        FAIR      63  59  88 NE6       29.86R
FORT MORGAN    FAIR      62  53  71 W5        29.90R
$$

COZ086-089-092>099-151200-
...SOUTHEAST COLORADO...

CITY           SKY/WX    TMP DP  RH WIND       PRES   REMARKS
PUEBLO         FAIR      63  59  87 N8        29.89F
LA JUNTA       FAIR      63  59  87 SE7       29.85S
LAMAR          FAIR      60  60 100 CALM      29.81S FOG
SPRINGFIELD      N/A     64  56  75 SW10      29.88S
$$




USA.gov is the U.S. government's official web portal to all federal, state and local government web resources and services.